SHT21B EGJB-EGLL

Flight info

Callsign SHT21B
Flight time 0h 34m
Altitude 23000
Route ORIST1F ORIST L982 ROXOG ROXOG1H
Aircraft A319/M-SDE3FGIJ1KRWXY/LB1

Departure

Time 2026-04-21 13:35
Airport Guernsey Airport (EGJB)

Arrival

Time 2026-04-21 14:10
Airport London Heathrow Airport (EGLL)
Time Latitude Longitude Altitude Speed Heading
2026-04-21 11:48 49.43255 -2.59620 340 ft 0 kts 177°
2026-04-21 12:09 49.43270 -2.59621 334 ft 4 kts 178°
2026-04-21 12:09 49.43297 -2.59622 336 ft 4 kts 180°
2026-04-21 12:10 49.43324 -2.59620 336 ft 4 kts 185°
2026-04-21 12:10 49.43350 -2.59613 335 ft 4 kts 210°
2026-04-21 12:10 49.43362 -2.59596 334 ft 0 kts 267°
2026-04-21 12:15 49.43362 -2.59605 335 ft 7 kts 267°
2026-04-21 12:16 49.43346 -2.59669 339 ft 7 kts 218°
2026-04-21 12:16 49.43302 -2.59685 337 ft 7 kts 179°
2026-04-21 12:16 49.43258 -2.59682 339 ft 7 kts 177°
2026-04-21 12:16 49.43253 -2.59682 339 ft 0 kts 177°
2026-04-21 13:26 49.43275 -2.59683 337 ft 4 kts 178°
2026-04-21 13:26 49.43299 -2.59684 340 ft 4 kts 180°
2026-04-21 13:26 49.43324 -2.59683 340 ft 4 kts 185°
2026-04-21 13:27 49.43347 -2.59677 334 ft 4 kts 206°
2026-04-21 13:27 49.43360 -2.59660 334 ft 1 kts 268°
2026-04-21 13:30 49.43360 -2.59662 334 ft 2 kts 268°
2026-04-21 13:30 49.43358 -2.59718 338 ft 9 kts 261°
2026-04-21 13:30 49.43345 -2.59844 340 ft 15 kts 267°
2026-04-21 13:31 49.43341 -2.59992 340 ft 6 kts 267°
2026-04-21 13:31 49.43338 -2.60088 338 ft 12 kts 268°
2026-04-21 13:31 49.43333 -2.60249 340 ft 18 kts 268°
2026-04-21 13:31 49.43328 -2.60463 338 ft 16 kts 268°
2026-04-21 13:32 49.43326 -2.60584 340 ft 15 kts 272°
2026-04-21 13:32 49.43342 -2.60733 338 ft 5 kts 278°
2026-04-21 13:32 49.43351 -2.60818 340 ft 11 kts 281°
2026-04-21 13:32 49.43365 -2.60965 336 ft 17 kts 271°
2026-04-21 13:33 49.43360 -2.61129 340 ft 4 kts 268°
2026-04-21 13:33 49.43359 -2.61202 340 ft 0 kts 268°
2026-04-21 13:34 49.43359 -2.61217 340 ft 5 kts 274°
2026-04-21 13:34 49.43383 -2.61295 340 ft 11 kts 310°
2026-04-21 13:34 49.43444 -2.61353 345 ft 11 kts 359°
2026-04-21 13:34 49.43464 -2.61341 354 ft 4 kts 59°
2026-04-21 13:35 49.43466 -2.61311 346 ft 0 kts 87°
2026-04-21 13:35 49.43470 -2.61168 352 ft 51 kts 88°
2026-04-21 13:35 49.43503 -2.60138 441 ft 126 kts 84°
2026-04-21 13:35 49.43538 -2.58779 1274 ft 130 kts 86°
2026-04-21 13:36 49.43578 -2.57467 2103 ft 134 kts 85°
2026-04-21 13:36 49.43626 -2.55936 2615 ft 154 kts 86°
2026-04-21 13:36 49.43674 -2.54174 3059 ft 177 kts 88°
2026-04-21 13:36 49.43752 -2.52235 3618 ft 193 kts 82°
2026-04-21 13:37 49.44441 -2.50316 4034 ft 227 kts 48°
2026-04-21 13:37 49.45731 -2.48728 4769 ft 244 kts 41°
2026-04-21 13:37 49.47107 -2.47126 5717 ft 252 kts 40°
2026-04-21 13:37 49.48527 -2.45489 6684 ft 258 kts 40°
2026-04-21 13:38 49.49987 -2.43815 7572 ft 265 kts 39°
2026-04-21 13:38 49.51479 -2.42095 8472 ft 271 kts 38°
2026-04-21 13:38 49.53003 -2.40330 9368 ft 277 kts 38°
2026-04-21 13:38 49.54536 -2.38545 10236 ft 283 kts 38°
2026-04-21 13:39 49.56147 -2.36663 10878 ft 294 kts 37°
2026-04-21 13:39 49.57771 -2.34756 11383 ft 294 kts 37°
2026-04-21 13:39 49.59397 -2.32839 12289 ft 295 kts 36°
2026-04-21 13:39 49.61032 -2.30909 13127 ft 298 kts 35°
2026-04-21 13:40 49.62691 -2.28951 13958 ft 302 kts 35°
2026-04-21 13:40 49.64368 -2.26966 14666 ft 306 kts 34°
2026-04-21 13:40 49.66075 -2.24954 15383 ft 310 kts 33°
2026-04-21 13:40 49.67801 -2.22925 16095 ft 314 kts 33°
2026-04-21 13:41 49.69547 -2.20865 16814 ft 318 kts 33°
2026-04-21 13:41 49.71311 -2.18783 17525 ft 321 kts 32°
2026-04-21 13:41 49.73071 -2.16697 18242 ft 325 kts 32°
2026-04-21 13:41 49.74873 -2.14556 18884 ft 329 kts 32°
2026-04-21 13:42 49.76692 -2.12390 19141 ft 331 kts 32°
2026-04-21 13:42 49.78514 -2.10212 19215 ft 331 kts 32°
2026-04-21 13:42 49.80336 -2.08033 19221 ft 331 kts 32°
2026-04-21 13:42 49.82158 -2.05856 19219 ft 330 kts 32°
2026-04-21 13:43 49.83977 -2.03684 19221 ft 330 kts 32°
2026-04-21 13:43 49.85798 -2.01516 19229 ft 330 kts 32°
2026-04-21 13:43 49.87591 -1.99384 19224 ft 329 kts 32°
2026-04-21 13:43 49.89408 -1.97219 19231 ft 329 kts 32°
2026-04-21 13:44 49.91222 -1.95052 19232 ft 329 kts 32°
2026-04-21 13:44 49.93030 -1.92881 19228 ft 329 kts 32°
2026-04-21 13:44 49.94839 -1.90703 19238 ft 329 kts 32°
2026-04-21 13:44 49.96658 -1.88565 19243 ft 326 kts 28°
2026-04-21 13:45 49.98621 -1.86839 19244 ft 324 kts 23°
2026-04-21 13:45 50.00595 -1.85165 19253 ft 324 kts 23°
2026-04-21 13:45 50.02579 -1.83479 19248 ft 324 kts 23°
2026-04-21 13:45 50.04556 -1.81798 19251 ft 324 kts 23°
2026-04-21 13:46 50.06503 -1.80143 19261 ft 324 kts 23°
2026-04-21 13:46 50.08478 -1.78465 19263 ft 323 kts 23°
2026-04-21 13:46 50.10445 -1.76789 19245 ft 318 kts 23°
2026-04-21 13:46 50.12357 -1.75153 19246 ft 312 kts 23°
2026-04-21 13:47 50.14257 -1.73533 19249 ft 310 kts 23°
2026-04-21 13:47 50.16149 -1.71926 19248 ft 310 kts 23°
2026-04-21 13:47 50.18043 -1.70318 19247 ft 310 kts 23°
2026-04-21 13:47 50.19931 -1.68706 19252 ft 310 kts 23°
2026-04-21 13:48 50.21795 -1.67110 19251 ft 310 kts 24°
2026-04-21 13:48 50.23683 -1.65493 19255 ft 310 kts 24°
2026-04-21 13:48 50.25568 -1.63875 19254 ft 309 kts 24°
2026-04-21 13:48 50.27456 -1.62257 19255 ft 309 kts 24°
2026-04-21 13:49 50.29343 -1.60640 19261 ft 309 kts 24°
2026-04-21 13:49 50.31233 -1.59022 19259 ft 309 kts 24°
2026-04-21 13:49 50.33117 -1.57404 19262 ft 309 kts 24°
2026-04-21 13:49 50.35005 -1.55780 19265 ft 309 kts 24°
2026-04-21 13:50 50.36891 -1.54156 19265 ft 310 kts 24°
2026-04-21 13:50 50.38752 -1.52547 19266 ft 310 kts 24°
2026-04-21 13:50 50.40635 -1.50914 19271 ft 310 kts 24°
2026-04-21 13:50 50.42524 -1.49281 19272 ft 310 kts 24°
2026-04-21 13:51 50.44409 -1.47652 19272 ft 310 kts 24°
2026-04-21 13:51 50.46295 -1.46018 19272 ft 310 kts 24°
2026-04-21 13:51 50.48181 -1.44387 19273 ft 310 kts 24°
2026-04-21 13:51 50.50067 -1.42748 19278 ft 310 kts 24°
2026-04-21 13:52 50.51954 -1.41113 19275 ft 310 kts 24°
2026-04-21 13:52 50.53840 -1.39483 19278 ft 310 kts 24°
2026-04-21 13:52 50.55699 -1.37870 19277 ft 310 kts 24°
2026-04-21 13:52 50.57584 -1.36228 19282 ft 310 kts 24°
2026-04-21 13:53 50.59468 -1.34590 19282 ft 310 kts 24°
2026-04-21 13:53 50.61352 -1.32949 19281 ft 310 kts 24°
2026-04-21 13:53 50.63234 -1.31305 19284 ft 310 kts 25°
2026-04-21 13:53 50.65119 -1.29655 19285 ft 309 kts 25°
2026-04-21 13:54 50.67005 -1.28002 19040 ft 311 kts 25°
2026-04-21 13:54 50.68889 -1.26351 18798 ft 309 kts 25°
2026-04-21 13:54 50.70763 -1.24713 18570 ft 307 kts 25°
2026-04-21 13:54 50.72620 -1.23085 18310 ft 304 kts 25°
2026-04-21 13:55 50.74441 -1.21489 18035 ft 302 kts 25°
2026-04-21 13:55 50.76275 -1.19880 17768 ft 300 kts 26°
2026-04-21 13:55 50.78094 -1.18282 17504 ft 298 kts 26°
2026-04-21 13:55 50.79903 -1.16693 17238 ft 297 kts 26°
2026-04-21 13:56 50.81792 -1.15033 16980 ft 326 kts 26°
2026-04-21 13:56 50.83809 -1.13260 16714 ft 335 kts 27°
2026-04-21 13:56 50.85852 -1.11460 16460 ft 336 kts 27°
2026-04-21 13:56 50.87893 -1.09660 16175 ft 334 kts 27°
2026-04-21 13:57 50.89887 -1.07899 15749 ft 332 kts 28°
2026-04-21 13:57 50.91791 -1.05869 15439 ft 328 kts 40°
2026-04-21 13:57 50.93572 -1.03625 14934 ft 327 kts 30°
2026-04-21 13:57 50.95704 -1.02316 14119 ft 335 kts 17°
2026-04-21 13:58 50.97973 -1.01424 13344 ft 337 kts 13°
2026-04-21 13:58 51.00289 -1.00829 12672 ft 337 kts 11°
2026-04-21 13:58 51.02600 -1.00305 12047 ft 335 kts 11°
2026-04-21 13:58 51.04871 -0.99814 11444 ft 333 kts 11°
2026-04-21 13:59 51.07156 -0.99332 10842 ft 331 kts 11°
2026-04-21 13:59 51.09433 -0.98861 10240 ft 328 kts 11°
2026-04-21 13:59 51.11688 -0.98399 9634 ft 325 kts 11°
2026-04-21 13:59 51.13916 -0.97953 8998 ft 320 kts 11°
2026-04-21 14:00 51.16080 -0.97285 8247 ft 313 kts 19°
2026-04-21 14:00 51.18154 -0.96320 7542 ft 308 kts 21°
2026-04-21 14:00 51.20185 -0.95342 7018 ft 299 kts 21°
2026-04-21 14:00 51.22125 -0.94415 6718 ft 284 kts 21°
2026-04-21 14:01 51.23977 -0.93538 6408 ft 272 kts 21°
2026-04-21 14:01 51.25742 -0.92719 6093 ft 263 kts 21°
2026-04-21 14:01 51.27482 -0.91906 5792 ft 260 kts 21°
2026-04-21 14:01 51.29206 -0.91089 5556 ft 257 kts 21°
2026-04-21 14:02 51.30340 -0.90551 5388 ft 256 kts 21°
2026-04-21 14:02 51.32614 -0.89484 5036 ft 253 kts 21°
2026-04-21 14:02 51.34278 -0.88706 4854 ft 245 kts 21°
2026-04-21 14:03 51.37246 -0.87103 4457 ft 230 kts 33°
2026-04-21 14:03 51.38587 -0.85854 4251 ft 223 kts 36°
2026-04-21 14:03 51.39900 -0.84570 4047 ft 220 kts 36°
2026-04-21 14:03 51.41187 -0.83310 3862 ft 214 kts 36°
2026-04-21 14:04 51.42442 -0.82087 3670 ft 210 kts 36°
2026-04-21 14:04 51.43680 -0.80884 3501 ft 204 kts 36°
2026-04-21 14:04 51.44688 -0.79407 3319 ft 192 kts 57°
2026-04-21 14:04 51.45401 -0.77642 3131 ft 185 kts 61°
2026-04-21 14:05 51.46058 -0.75927 3008 ft 177 kts 61°
2026-04-21 14:05 51.46687 -0.74274 2874 ft 171 kts 61°
2026-04-21 14:05 51.47295 -0.72682 2768 ft 162 kts 62°
2026-04-21 14:05 51.47633 -0.71039 2589 ft 153 kts 86°
2026-04-21 14:06 51.47635 -0.69400 2532 ft 145 kts 88°
2026-04-21 14:06 51.47649 -0.67798 2439 ft 143 kts 88°
2026-04-21 14:06 51.47660 -0.66211 2286 ft 142 kts 88°
2026-04-21 14:06 51.47670 -0.64638 2108 ft 141 kts 88°
2026-04-21 14:07 51.47679 -0.63061 1923 ft 141 kts 88°
2026-04-21 14:07 51.47687 -0.61514 1729 ft 136 kts 88°
2026-04-21 14:07 51.47695 -0.60038 1550 ft 128 kts 88°
2026-04-21 14:07 51.47699 -0.59102 1439 ft 126 kts 87°
2026-04-21 14:08 51.47707 -0.57402 1229 ft 126 kts 87°
2026-04-21 14:08 51.47711 -0.56602 1130 ft 125 kts 88°
2026-04-21 14:08 51.47718 -0.55202 948 ft 125 kts 88°
2026-04-21 14:08 51.47725 -0.53826 779 ft 126 kts 88°
2026-04-21 14:09 51.47728 -0.52433 600 ft 124 kts 89°
2026-04-21 14:09 51.47732 -0.51017 437 ft 133 kts 89°
2026-04-21 14:09 51.47745 -0.49552 261 ft 129 kts 86°
2026-04-21 14:09 51.47752 -0.48144 105 ft 124 kts 87°
2026-04-21 14:10 51.47758 -0.46910 89 ft 99 kts 90°
2026-04-21 14:10 51.47757 -0.46293 89 ft 23 kts 92°
2026-04-21 14:10 51.47672 -0.46112 86 ft 13 kts 145°
2026-04-21 14:10 51.47604 -0.46062 87 ft 12 kts 192°
2026-04-21 14:11 51.47593 -0.46196 87 ft 15 kts 271°
2026-04-21 14:11 51.47593 -0.46379 87 ft 18 kts 269°
2026-04-21 14:11 51.47592 -0.46507 87 ft 13 kts 270°
2026-04-21 14:11 51.47592 -0.46640 87 ft 7 kts 270°
2026-04-21 14:12 51.47591 -0.46757 87 ft 13 kts 270°
2026-04-21 14:12 51.47582 -0.46933 87 ft 19 kts 269°
2026-04-21 14:12 51.47582 -0.47114 87 ft 15 kts 270°
2026-04-21 14:12 51.47581 -0.47304 89 ft 20 kts 270°
2026-04-21 14:13 51.47580 -0.47548 88 ft 24 kts 269°
2026-04-21 14:13 51.47580 -0.47747 87 ft 9 kts 270°
2026-04-21 14:13 51.47579 -0.47849 87 ft 9 kts 270°
2026-04-21 14:13 51.47579 -0.47955 89 ft 9 kts 270°
2026-04-21 14:14 51.47579 -0.48058 88 ft 9 kts 270°
2026-04-21 14:14 51.47578 -0.48162 87 ft 9 kts 270°
2026-04-21 14:14 51.47578 -0.48270 87 ft 10 kts 269°
2026-04-21 14:14 51.47577 -0.48378 87 ft 10 kts 270°
2026-04-21 14:15 51.47558 -0.48470 88 ft 9 kts 212°
2026-04-21 14:15 51.47500 -0.48479 87 ft 9 kts 178°
2026-04-21 14:15 51.47430 -0.48478 87 ft 10 kts 180°
2026-04-21 14:15 51.47362 -0.48477 87 ft 10 kts 180°
2026-04-21 14:16 51.47296 -0.48477 87 ft 9 kts 179°
2026-04-21 14:16 51.47234 -0.48476 87 ft 9 kts 180°
2026-04-21 14:16 51.47168 -0.48475 87 ft 12 kts 180°
2026-04-21 14:16 51.47070 -0.48474 87 ft 15 kts 180°
2026-04-21 14:17 51.46966 -0.48473 87 ft 15 kts 179°
2026-04-21 14:17 51.46899 -0.48476 87 ft 5 kts 193°
2026-04-21 14:17 51.46876 -0.48544 87 ft 11 kts 265°
2026-04-21 14:17 51.46876 -0.48680 87 ft 12 kts 269°
2026-04-21 14:18 51.46876 -0.48816 87 ft 10 kts 269°
2026-04-21 14:18 51.46889 -0.48859 88 ft 5 kts 335°
2026-04-21 14:18 51.46919 -0.48861 87 ft 2 kts 359°
2026-04-21 14:18 51.46923 -0.48861 87 ft 0 kts 359°